Weather History for Broomfield, CO

Change the Weather History Date:

Saturday, September 22, 2012

  Actual Average Record
Temperature  
Mean Temperature 64 °F -  
Max Temperature 77 °F 70 °F 89 °F (2007)
Min Temperature 50 °F 46 °F 33 °F (2000)
Degree Days  
Heating Degree Days 2    
Growing Degree Days 14 (Base 50)    
Moisture  
Dew Point 30 °F    
Average Humidity 32    
Maximum Humidity 50    
Minimum Humidity 18    
Precipitation  
Precipitation 0.00 in - - ()
Sea Level Pressure  
Sea Level Pressure 30.29 in    
Wind  
Wind Speed 8 mph (NNW)    
Max Wind Speed 12 mph    
Max Gust Speed -    
Visibility 11 miles    
Events      
Averages and records for this station are not official NWS values.
T = Trace of Precipitation, MM = Missing Value Source: NWS Daily Summary

Daily Weather History Graph

Daily Weather History Graph

Search for Another Location

Airport:

Trip Planner

Search our weather history database for the weather conditions in past years. The results will help you decide how hot, cold, wet, or windy it might be!

Date:

Astronomy

Sep. 22, 2012 Rise Set
Actual Time 6:48 AM MDT 6:56 PM MDT
Civil Twilight 6:21 AM MDT 7:23 PM MDT
Nautical Twilight 5:49 AM MDT 7:55 PM MDT
Astronomical Twilight 5:17 AM MDT 8:27 PM MDT
Moon 2:08 PM MDT No Moon Set
Length of Visible Light 13h 02m
Length of Day
12h 08m
Waxing Crescent, 49% of the Moon is Illuminated
Sep 22
Waxing Crescent
Sep 22
First Quarter
Sep 29
Full
Oct 8
Last Quarter
Oct 15
New

Hourly Weather History & Observations

Time (MDT) Temp. Dew Point Humidity Pressure Visibility Wind Dir Wind Speed Gust Speed Precip Events Conditions
12:15 AM 59.0 °F 30.2 °F 34% 30.27 in 10.0 mi NW 10.4 mph - N/A   Clear
12:35 AM 62.6 °F 28.4 °F 27% 30.28 in 10.0 mi NW 10.4 mph - N/A   Clear
12:55 AM 60.8 °F 28.4 °F 29% 30.28 in 10.0 mi NNW 9.2 mph - N/A   Clear
1:15 AM 62.6 °F 28.4 °F 27% 30.28 in 10.0 mi NW 9.2 mph - N/A   Clear
1:35 AM 60.8 °F 28.4 °F 29% 30.29 in 10.0 mi NNW 10.4 mph - N/A   Clear
1:54 AM 60.8 °F 28.4 °F 29% 30.30 in 10.0 mi NW 9.2 mph - N/A   Clear
2:15 AM 60.8 °F 28.4 °F 29% 30.30 in 10.0 mi NW 10.4 mph - N/A   Clear
2:35 AM 60.8 °F 28.4 °F 29% 30.30 in 10.0 mi NW 9.2 mph - N/A   Clear
2:55 AM 60.8 °F 28.4 °F 29% 30.30 in 10.0 mi NW 8.1 mph - N/A   Clear
3:15 AM 60.8 °F 28.4 °F 29% 30.29 in 10.0 mi NW 8.1 mph - N/A   Clear
3:34 AM 59.0 °F 28.4 °F 31% 30.30 in 10.0 mi NW 3.5 mph - N/A   Clear
3:54 AM 59.0 °F 28.4 °F 31% 30.30 in 10.0 mi NE 4.6 mph - N/A   Clear
4:15 AM 57.2 °F 30.2 °F 36% 30.30 in 10.0 mi East 4.6 mph - N/A   Clear
4:35 AM 53.6 °F 32.0 °F 44% 30.31 in 10.0 mi North 3.5 mph - N/A   Clear
4:55 AM 53.6 °F 32.0 °F 44% 30.32 in 10.0 mi NW 6.9 mph - N/A   Clear
5:15 AM 53.6 °F 32.0 °F 44% 30.32 in 10.0 mi NW 8.1 mph - N/A   Clear
5:35 AM 51.8 °F 32.0 °F 47% 30.32 in 10.0 mi NW 10.4 mph - N/A   Clear
5:49 AM 53.6 °F 32.0 °F 44% 30.32 in 10.0 mi NW 10.4 mph - N/A   Clear
5:55 AM 51.8 °F 32.0 °F 47% 30.33 in 10.0 mi NW 9.2 mph - N/A   Clear
6:47 AM 50.0 °F 32.0 °F 50% 30.34 in 15.0 mi Calm Calm - N/A   Partly Cloudy
7:52 AM 51.8 °F - N/A% 30.35 in 15.0 mi NW 4.6 mph - N/A   Partly Cloudy
8:52 AM 55.4 °F 30.2 °F 38% 30.35 in 15.0 mi North 5.8 mph - N/A   Clear
9:51 AM 59.0 °F 30.2 °F 34% 30.35 in 20.0 mi NW 3.5 mph - N/A   Clear
11:55 AM 66.2 °F 30.2 °F 26% 30.32 in 15.0 mi North 4.6 mph - N/A   Partly Cloudy
12:51 PM 69.8 °F 28.4 °F 21% 30.30 in 15.0 mi Variable 3.5 mph - N/A   Partly Cloudy
1:45 PM 71.6 °F 30.2 °F 22% 30.28 in 15.0 mi East 3.5 mph - N/A   Scattered Clouds
2:46 PM 73.4 °F 30.2 °F 20% 30.25 in 15.0 mi Calm Calm - N/A   Scattered Clouds
4:45 PM 77.0 °F 30.2 °F 18% 30.22 in 10.0 mi NW 8.1 mph - N/A   Partly Cloudy
5:47 PM 75.2 °F 32.0 °F 21% 30.21 in 11.0 mi NNW 11.5 mph - N/A   Scattered Clouds
7:48 PM 68.0 °F 32.0 °F 26% 30.21 in 10.0 mi NW 6.9 mph - N/A   Scattered Clouds
8:45 PM 66.2 °F 32.0 °F 28% 30.23 in 10.0 mi WNW 9.2 mph - N/A   Partly Cloudy
11:14 PM 60.8 °F 32.0 °F 34% 30.24 in 10.0 mi Calm Calm - N/A   Clear
11:35 PM 59.0 °F 33.8 °F 39% 30.24 in 10.0 mi Calm Calm - N/A   Clear
11:55 PM 60.8 °F 32.0 °F 34% 30.24 in 10.0 mi Calm Calm - N/A   Clear